カタログに戻る

THORAD AGENA D DEB

運用中LEO
NORAD 4277·DEBRIS·🇺🇸 United States

打ち上げ Sep 30, 1969 から Vandenberg Space Force Base

Loading…

次のパス (今後24時間)

TLE

最新Source: Space-Track

元期: Sep 14, 2026, 13:15 UTC

1  4277U 69082DL  26257.55248398  .00000208  00000-0  15457-3 0  9996
2  4277  70.0218 187.2570 0038308 110.7945 249.7277 14.07443556921075

AllMySatでTHORAD AGENA D DEBをリアルタイム追跡

Download on the App Store